Content
SEND FEEDBACK

Daily
Averages
Monthly
Summary
United States of America

NEUSE, NORTH CAROLINA


Home > North America > United States > North Carolina
Elevation: 28 feet     Latitude: 35 54N     Longitude: 078 34W

WEATHER
 
SELECT A DAY
Number of Records: 192,829;   Date Range: 1/1/95 - 7/22/14
 
SHARE

PRINT THIS DATA

[ ← Previous Day ]
WEATHER ALMANAC - MARCH 15, 2013
[ Next Day → ]
[ °C ]   °F
Weather ElementAverageHighLow
Temperature46.7 °F62.1 °F (3:51 pm)28 °F (5:51 am)
Dewpoint26.1 °F33.1 °F (6:51 pm)17.1 °F (1:51 am)
Humidity47 %72 % (5:51 am)31 % (1:51 pm)
Barometer30.06 in30.19 in (8:51 am)29.91 in (11:51 pm)
Wind Speed8.2 mph19.6 mph (3:51 pm)
Wind Gust24.2 mph (1:51 pm)
Weather ElementAverage
Visibility10 mi
Wind DirectionSSW (187 °)

Weather ElementTotal
Precipitation---
Heating Degree Days20 (Base 65)
Averaged from 23 records on March 15, 2013
WEATHER CONDITIONS BREAKOUT
WIND DIRECTION BREAKOUT
WEATHER BY HOUR - MARCH 15, 2013
[ °C ]   °F
Local TimeTemperatureDewpointHumidityBarometerVisibilityWind DirectionWind SpeedGust SpeedPrecipitationEventsConditions
1:51 AM37.9 °F17.1 °F43 %30.18 in10.0 miWNW (300°)3.5 mphPartly Cloudy
2:51 AM33.8 °F19.4 °F56 %30.17 in10.0 miCalmPartly Cloudy
3:51 AM33.1 °F18.0 °F54 %30.15 in10.0 miCalmPartly Cloudy
4:51 AM30.0 °F19.9 °F66 %30.15 in10.0 miCalmPartly Cloudy
5:51 AM28.0 °F19.9 °F72 %30.17 in10.0 miWNW (290°)3.5 mphPartly Cloudy
6:51 AM28.9 °F19.0 °F67 %30.17 in10.0 miCalmScattered Clouds
7:51 AM28.0 °F19.9 °F72 %30.18 in10.0 miCalmScattered Clouds
8:51 AM34.0 °F25.0 °F70 %30.19 in10.0 miSW (230°)4.6 mphPartly Cloudy
9:51 AM43.0 °F21.9 °F43 %30.18 in10.0 miWSW (250°)5.8 mphPartly Cloudy
10:51 AM48.0 °F21.0 °F34 %30.16 in10.0 miWSW (250°)8.1 mphPartly Cloudy
11:51 AM52.0 °F24.1 °F34 %30.13 in10.0 miWSW (240°)15.0 mphPartly Cloudy
12:51 PM55.9 °F27.0 °F33 %30.09 in10.0 miSW (220°)12.7 mphScattered Clouds
1:51 PM59.0 °F28.0 °F31 %30.06 in10.0 miWSW (240°)15.0 mph24.2 mphMostly Cloudy
2:51 PM61.0 °F30.9 °F32 %30.01 in10.0 miSW (230°)10.4 mph24.2 mphMostly Cloudy
3:51 PM62.1 °F32.0 °F32 %29.97 in10.0 miSW (220°)19.6 mph24.2 mphMostly Cloudy
4:51 PM60.1 °F32.0 °F35 %29.95 in10.0 miWSW (240°)19.6 mph23.0 mphMostly Cloudy
5:51 PM59.0 °F30.9 °F35 %29.94 in10.0 miWSW (250°)13.8 mph23.0 mphMostly Cloudy
6:51 PM59.0 °F33.1 °F38 %29.93 in10.0 miSW (230°)15.0 mphMostly Cloudy
7:51 PM52.0 °F33.1 °F49 %29.93 in10.0 miWSW (240°)6.9 mphMostly Cloudy
8:51 PM50.0 °F32.0 °F50 %29.93 in10.0 miSW (220°)5.8 mphScattered Clouds
9:51 PM53.1 °F32.0 °F45 %29.92 in10.0 miSSW (210°)9.2 mphPartly Cloudy
10:51 PM54.0 °F32.0 °F43 %29.92 in10.0 miSW (220°)12.7 mphScattered Clouds
11:51 PM53.1 °F33.1 °F47 %29.91 in10.0 miSW (220°)8.1 mphPartly Cloudy
Hourly data recorded from KRDU, located miles away from Neuse, North Carolina







STORIES FROM OUR PARTNERS